Wind_Speed
34 25 27 29 30 32 31 31 31 33 34 33 33 33 34 35 35 36 35 38 37 38 40 43 44 45 44 44 43 42 43 45
28 25 29 29 27 30 28 25 25 25 26 28 29 32 32 32 33 35 35 36 35 40 39 38 42 43 41 39 40 42 45 47
28 28 27 24 26 25 24 22 22 24 25 28 29 30 33 35 38 40 40 40 42 41 43 46 46 47 44 45 46 44 45 43
34 32 31 31 30 30 32 29 28 31 35 36 36 37 39 42 43 44 45 46 48 48 49 52 51 52 54 55 54 52 52 48
37 38 34 37 36 36 37 38 40 42 38 39 41 42 45 47 50 51 54 54 53 58 60 58 57 57 57 57 58 57 55 56
40 39 40 41 41 42 42 44 45 47 50 51 51 53 57 58 57 56 59 62 64 63 63 62 61 62 61 63 62 61 61 62
44 44 44 45 46 47 48 50 50 52 54 56 58 62 64 66 65 66 65 63 64 66 66 65 64 65 67 66 67 66 67 67
49 49 50 50 51 52 53 56 58 59 62 63 63 65 65 67 66 66 66 66 68 67 67 66 67 68 67 68 69 70 70 69
54 54 56 56 58 58 60 63 65 67 69 72 74 73 72 71 70 69 69 70 69 71 71 71 71 71 73 75 77 77 76 78
59 59 60 60 62 66 69 70 69 71 76 76 78 79 78 75 75 74 76 76 76 75 77 78 79 80 82 84 83 83 82 83
62 60 57 57 59 63 65 67 68 69 70 70 72 75 76 77 79 82 82 82 82 83 83 83 84 87 88 88 89 88 88 89
61 63 65 68 70 72 75 77 78 80 83 85 85 86 86 87 88 88 87 88 89 89 89 90 91 93 94 94 96 97 98 99
71 73 76 79 80 82 85 86 86 88 89 90 91 92 93 93 93 93 92 92 94 94 95 96 97 99 101 104 105 107 109 110
76 77 80 80 80 83 84 84 87 91 91 91 92 93 94 97 96 97 97 98 98 100 101 103 106 109 111 113 114 111 110 117
85 88 88 88 87 87 89 90 91 91 91 92 94 96 97 99 99 100 101 102 105 106 108 110 112 114 114 117 119 119 117 112
88 88 91 93 94 94 94 95 95 95 95 97 98 99 100 101 102 104 105 106 108 109 110 111 112 117 116 113 113 115 112 109
93 96 96 97 97 99 100 100 100 98 97 98 100 102 103 104 103 105 106 107 107 110 111 111 113 111 109 109 106 97 87 84
101 100 102 103 104 103 102 101 102 102 102 102 102 103 104 103 104 106 104 104 106 107 110 108 106 107 107 96 89 79 73 69
103 103 103 102 103 104 104 104 105 104 106 103 104 103 104 105 105 104 101 101 100 105 102 104 105 99 92 84 77 69 62 59
101 102 102 104 105 105 105 106 104 104 106 104 105 105 103 103 100 97 99 100 102 100 98 97 92 86 79 72 65 60 55 51
Wind_Direction
299 290 292 290 279 282 281 278 277 278 281 280 281 282 283 283 288 286 289 292 294 293 292 290 291 289 287 286 284 286 284 280
301 298 289 286 282 282 285 287 284 282 285 282 281 281 283 289 296 297 297 297 296 295 300 297 297 300 300 295 292 291 291 284
291 293 289 277 282 278 280 285 288 290 294 296 292 292 295 296 297 295 296 295 296 296 295 294 293 292 289 290 292 290 290 284
287 285 288 286 286 286 285 283 287 298 296 291 286 288 289 290 292 291 290 287 288 289 288 288 289 290 292 290 290 291 289 285
285 283 285 284 286 285 285 287 290 292 291 287 283 284 286 288 290 290 288 289 290 292 291 287 286 286 286 289 288 289 287 286
280 283 285 284 282 280 283 283 286 291 293 294 290 288 287 287 285 283 285 286 289 291 289 288 287 287 286 289 288 287 285 284
276 276 277 280 281 280 280 281 280 282 284 286 288 289 289 287 285 286 289 288 290 291 289 287 287 287 288 286 284 284 285 285
272 272 271 271 272 273 275 276 277 279 279 280 282 286 288 288 286 284 286 286 287 287 285 285 284 283 283 283 285 285 282 282
273 274 272 271 271 274 275 276 277 279 280 280 279 282 285 284 285 284 285 285 285 286 286 285 283 284 284 285 285 283 280 282
275 274 273 276 276 274 275 276 279 281 280 281 279 280 282 282 283 282 283 284 284 284 284 283 283 283 283 283 283 283 280 280
284 282 279 278 276 275 277 278 278 280 282 280 279 280 281 283 283 284 285 286 286 286 284 283 283 283 284 284 284 282 280 278
277 272 269 272 274 275 276 277 278 280 283 284 284 283 284 285 287 287 287 288 288 287 287 286 286 286 285 283 282 282 281 280
269 270 270 271 275 276 276 276 278 280 281 283 283 283 284 286 287 287 287 288 288 288 287 288 288 287 286 286 284 284 285 283
269 270 271 272 272 273 274 275 276 278 280 281 281 282 284 286 288 289 290 289 288 289 290 290 290 289 287 287 287 286 285 280
275 273 272 271 272 273 274 276 277 278 279 281 283 284 286 287 288 288 289 290 290 291 291 290 290 291 290 289 288 286 284 278
278 277 276 275 275 275 275 276 277 279 280 281 282 283 285 286 286 287 287 288 289 289 289 289 290 289 290 289 286 284 281 280
276 277 277 276 278 277 276 277 277 278 280 282 282 283 284 285 286 286 287 287 289 290 290 288 288 291 289 288 287 285 283 280
275 274 274 275 275 275 276 276 278 279 280 281 281 281 282 284 287 287 287 289 289 289 290 290 291 290 292 292 292 290 286 280
273 273 273 274 274 274 274 276 277 278 280 281 280 281 283 286 287 288 289 289 289 290 291 291 292 293 294 294 292 289 285 281
269 269 270 272 272 273 273 275 277 279 280 281 282 283 284 287 288 289 289 290 290 292 292 295 295 296 294 292 291 289 287 284
Height
10742 10738 10737 10736 10735 10733 10732 10731 10731 10731 10730 10730 10729 10729 10728 10727 10726 10725 10724 10722 10721 10720 10719 10717 10716 10714 10713 10711 10710 10709 10709 10709
10735 10735 10732 10731 10729 10728 10727 10725 10724 10724 10723 10723 10722 10721 10720 10719 10717 10716 10714 10713 10713 10712 10711 10709 10707 10706 10704 10703 10701 10700 10699 10698
10731 10729 10728 10725 10724 10722 10721 10719 10718 10717 10716 10715 10714 10712 10710 10709 10708 10707 10705 10704 10703 10702 10702 10701 10699 10698 10696 10695 10693 10691 10689 10688
10724 10723 10720 10720 10718 10716 10715 10714 10712 10711 10710 10708 10707 10705 10703 10702 10700 10699 10697 10696 10695 10694 10693 10691 10689 10687 10685 10684 10682 10681 10681 10680
10715 10715 10713 10712 10711 10710 10708 10707 10704 10703 10702 10701 10699 10697 10695 10693 10691 10690 10688 10686 10684 10683 10681 10680 10678 10676 10673 10671 10670 10669 10668 10668
10706 10705 10704 10703 10702 10701 10700 10698 10696 10693 10692 10690 10689 10687 10685 10683 10682 10679 10677 10675 10673 10671 10669 10667 10665 10663 10660 10658 10656 10654 10654 10654
10696 10695 10695 10694 10693 10691 10690 10688 10686 10685 10683 10680 10678 10675 10673 10671 10669 10667 10665 10663 10661 10658 10655 10652 10650 10648 10645 10643 10641 10640 10638 10637
10687 10685 10685 10683 10682 10680 10678 10677 10675 10674 10672 10668 10665 10663 10661 10658 10656 10653 10652 10649 10646 10643 10640 10638 10635 10632 10630 10626 10624 10623 10621 10620
10676 10675 10673 10672 10670 10669 10667 10666 10663 10661 10658 10655 10651 10649 10646 10643 10641 10639 10636 10633 10630 10627 10624 10621 10618 10615 10613 10611 10607 10605 10603 10602
10664 10663 10662 10661 10659 10657 10654 10651 10649 10646 10642 10638 10634 10632 10629 10627 10625 10622 10620 10617 10614 10610 10607 10604 10600 10598 10595 10593 10589 10586 10582 10582
10651 10651 10650 10647 10645 10642 10640 10636 10633 10629 10625 10621 10617 10614 10612 10609 10607 10604 10601 10598 10595 10591 10588 10585 10582 10578 10574 10571 10567 10565 10561 10560
10637 10635 10633 10631 10628 10625 10622 10620 10617 10612 10608 10604 10601 10597 10594 10591 10587 10584 10581 10577 10573 10570 10567 10564 10561 10556 10551 10548 10543 10539 10537 10535
10620 10617 10615 10613 10611 10608 10606 10602 10599 10595 10590 10587 10583 10579 10576 10573 10569 10565 10562 10558 10553 10548 10544 10539 10536 10530 10525 10519 10515 10510 10506 10501
10602 10600 10598 10596 10593 10590 10586 10583 10580 10576 10572 10568 10563 10559 10556 10552 10549 10544 10540 10535 10529 10524 10519 10513 10509 10502 10495 10488 10477 10478 10476 10458
10583 10581 10578 10576 10574 10570 10567 10564 10560 10557 10553 10548 10544 10539 10535 10530 10527 10522 10516 10511 10505 10499 10494 10486 10479 10472 10464 10455 10447 10436 10435 10437
10561 10559 10556 10555 10552 10549 10547 10543 10540 10537 10532 10528 10524 10519 10515 10509 10504 10498 10493 10487 10482 10475 10467 10458 10450 10441 10434 10424 10415 10405 10395 10386
10538 10535 10534 10531 10529 10527 10524 10521 10517 10513 10511 10507 10502 10496 10491 10486 10482 10475 10470 10463 10456 10447 10438 10427 10417 10409 10399 10390 10380 10371 10361 10352
10513 10510 10508 10506 10503 10502 10500 10498 10495 10491 10487 10483 10479 10474 10468 10464 10458 10451 10444 10438 10429 10420 10410 10401 10392 10379 10368 10357 10347 10340 10334 10328
10486 10484 10482 10480 10478 10476 10474 10473 10471 10468 10464 10461 10455 10451 10446 10442 10435 10429 10421 10412 10403 10394 10386 10376 10363 10351 10340 10331 10324 10319 10314 10309
10459 10458 10456 10455 10454 10452 10450 10448 10447 10445 10440 10436 10433 10429 10425 10420 10413 10406 10398 10388 10379 10371 10360 10349 10337 10326 10318 10311 10305 10299 10295 10291